TimeCDT,TemperatureF,Dew PointF,Humidity,Sea Level PressureIn,VisibilityMPH,Wind Direction,Wind SpeedMPH,Gust SpeedMPH,PrecipitationIn,Events,Conditions,WindDirDegrees,DateUTC
12:18 AM,47.3,41.7,81,29.99,10.0,Calm,Calm,-,N/A,,Clear,0,2013-09-21 05:18:00
12:37 AM,46.9,41.9,83,29.99,10.0,Calm,Calm,-,N/A,,Clear,0,2013-09-21 05:37:00
12:57 AM,46.8,41.9,83,29.99,10.0,Calm,Calm,-,N/A,,Clear,0,2013-09-21 05:57:00
1:17 AM,46.2,41.4,83,29.99,10.0,Calm,Calm,-,N/A,,Clear,0,2013-09-21 06:17:00
1:38 AM,45.7,41.0,84,29.99,10.0,Calm,Calm,-,N/A,,Clear,0,2013-09-21 06:38:00
1:57 AM,45.3,41.0,85,30.00,10.0,Calm,Calm,-,N/A,,Clear,0,2013-09-21 06:57:00
2:18 AM,45.5,41.4,85,30.00,10.0,Calm,Calm,-,N/A,,Clear,0,2013-09-21 07:18:00
2:38 AM,45.5,41.2,85,30.00,10.0,Calm,Calm,-,N/A,,Clear,0,2013-09-21 07:38:00
2:57 AM,44.8,41.0,87,30.00,10.0,Calm,Calm,-,N/A,,Clear,0,2013-09-21 07:57:00
3:18 AM,45.0,41.0,86,29.99,10.0,Calm,Calm,-,N/A,,Clear,0,2013-09-21 08:18:00
3:37 AM,44.6,40.6,86,29.99,10.0,Calm,Calm,-,N/A,,Clear,0,2013-09-21 08:37:00
3:57 AM,44.2,40.6,87,29.99,10.0,Calm,Calm,-,N/A,,Clear,0,2013-09-21 08:57:00
4:18 AM,45.0,40.6,85,29.99,10.0,Calm,Calm,-,N/A,,Clear,0,2013-09-21 09:18:00
4:38 AM,44.4,40.3,85,29.99,10.0,Calm,Calm,-,N/A,,Clear,0,2013-09-21 09:38:00
4:58 AM,44.6,40.3,85,29.99,10.0,Calm,Calm,-,N/A,,Clear,0,2013-09-21 09:58:00
5:18 AM,45.0,40.3,84,29.99,10.0,Calm,Calm,-,N/A,,Clear,0,2013-09-21 10:18:00
5:38 AM,43.9,39.7,85,30.00,10.0,Calm,Calm,-,N/A,,Clear,0,2013-09-21 10:38:00
5:58 AM,45.0,40.1,83,30.00,10.0,Calm,Calm,-,N/A,,Clear,0,2013-09-21 10:58:00
6:18 AM,44.2,39.7,84,30.01,10.0,Calm,Calm,-,N/A,,Clear,0,2013-09-21 11:18:00
6:38 AM,43.2,39.2,86,30.01,10.0,Calm,Calm,-,N/A,,Clear,0,2013-09-21 11:38:00
6:58 AM,42.3,39.2,89,30.00,10.0,Calm,Calm,-,N/A,,Clear,0,2013-09-21 11:58:00
7:18 AM,43.0,39.2,86,30.01,10.0,Calm,Calm,-,N/A,,Clear,0,2013-09-21 12:18:00
7:37 AM,43.3,39.6,87,30.01,10.0,Calm,Calm,-,N/A,,Clear,0,2013-09-21 12:37:00
7:58 AM,42.4,39.2,88,30.01,10.0,Calm,Calm,-,N/A,,Clear,0,2013-09-21 12:58:00
8:18 AM,46.8,41.5,82,30.02,10.0,Calm,Calm,-,N/A,,Clear,0,2013-09-21 13:18:00
8:38 AM,48.2,42.8,82,30.02,10.0,Calm,Calm,-,N/A,,Clear,0,2013-09-21 13:38:00
8:58 AM,49.6,43.0,78,30.03,10.0,Calm,Calm,-,N/A,,Clear,0,2013-09-21 13:58:00
9:17 AM,51.3,45.0,79,30.03,10.0,Calm,Calm,-,N/A,,Clear,0,2013-09-21 14:17:00
9:38 AM,53.1,45.9,77,30.02,10.0,Calm,Calm,-,N/A,,Clear,0,2013-09-21 14:38:00
9:58 AM,54.3,46.2,74,30.03,10.0,Calm,Calm,-,N/A,,Clear,0,2013-09-21 14:58:00
10:17 AM,55.2,45.7,70,30.03,10.0,Calm,Calm,-,N/A,,Clear,0,2013-09-21 15:17:00
10:38 AM,56.1,44.8,66,30.03,10.0,Calm,Calm,-,N/A,,Clear,0,2013-09-21 15:38:00
10:57 AM,56.8,44.2,63,30.03,10.0,Calm,Calm,-,N/A,,Clear,0,2013-09-21 15:57:00
11:18 AM,58.1,44.4,60,30.02,10.0,Calm,Calm,-,N/A,,Clear,0,2013-09-21 16:18:00
11:38 AM,59.0,44.6,59,30.02,10.0,Calm,Calm,-,N/A,,Clear,0,2013-09-21 16:38:00
11:58 AM,59.5,44.2,57,30.01,10.0,Calm,Calm,-,N/A,,Clear,0,2013-09-21 16:58:00
12:18 PM,61.5,44.6,54,30.01,10.0,Calm,Calm,-,N/A,,Clear,0,2013-09-21 17:18:00
12:38 PM,63.3,45.0,51,30.00,10.0,Calm,Calm,-,N/A,,Clear,0,2013-09-21 17:38:00
12:58 PM,63.7,44.4,50,30.00,10.0,Calm,Calm,-,N/A,,Clear,0,2013-09-21 17:58:00
1:18 PM,64.8,44.2,47,29.99,10.0,Calm,Calm,-,N/A,,Clear,0,2013-09-21 18:18:00
1:38 PM,64.9,43.0,45,29.98,10.0,Calm,Calm,-,N/A,,Clear,0,2013-09-21 18:38:00
1:58 PM,66.4,42.4,42,29.97,10.0,Calm,Calm,-,N/A,,Clear,0,2013-09-21 18:58:00
2:18 PM,66.9,42.4,41,29.96,10.0,Calm,Calm,-,N/A,,Clear,0,2013-09-21 19:18:00
2:38 PM,67.5,41.4,39,29.95,10.0,Calm,Calm,-,N/A,,Clear,0,2013-09-21 19:38:00
2:58 PM,68.2,41.4,38,29.95,10.0,Calm,Calm,-,N/A,,Clear,0,2013-09-21 19:58:00
3:18 PM,68.7,40.3,35,29.94,10.0,Calm,Calm,-,N/A,,Clear,0,2013-09-21 20:18:00
3:38 PM,69.8,42.3,37,29.92,10.0,Calm,Calm,-,N/A,,Clear,0,2013-09-21 20:38:00
3:58 PM,69.1,41.9,37,29.92,10.0,Calm,Calm,-,N/A,,Clear,0,2013-09-21 20:58:00
4:18 PM,69.8,41.5,36,29.91,10.0,Calm,Calm,-,N/A,,Clear,0,2013-09-21 21:18:00
4:38 PM,70.7,42.3,36,29.90,10.0,Calm,Calm,-,N/A,,Clear,0,2013-09-21 21:38:00
4:57 PM,70.7,41.7,35,29.90,10.0,Calm,Calm,-,N/A,,Clear,0,2013-09-21 21:57:00
5:18 PM,70.3,39.0,32,29.89,10.0,Calm,Calm,-,N/A,,Clear,0,2013-09-21 22:18:00
5:38 PM,70.2,38.3,31,29.89,10.0,Calm,Calm,-,N/A,,Clear,0,2013-09-21 22:38:00
5:57 PM,69.8,39.0,33,29.88,10.0,Calm,Calm,-,N/A,,Clear,0,2013-09-21 22:57:00
6:17 PM,68.7,40.3,35,29.88,10.0,Calm,Calm,-,N/A,,Clear,0,2013-09-21 23:17:00
6:38 PM,67.8,42.1,39,29.88,10.0,Calm,Calm,-,N/A,,Clear,0,2013-09-21 23:38:00
6:58 PM,65.7,43.5,45,29.89,10.0,Calm,Calm,-,N/A,,Clear,0,2013-09-21 23:58:00
7:17 PM,63.3,45.3,52,29.89,10.0,Calm,Calm,-,N/A,,Clear,0,2013-09-22 00:17:00
7:38 PM,60.1,46.6,61,29.89,10.0,Calm,Calm,-,N/A,,Clear,0,2013-09-22 00:38:00
7:58 PM,57.4,46.2,66,29.89,10.0,Calm,Calm,-,N/A,,Clear,0,2013-09-22 00:58:00
8:18 PM,55.2,45.5,70,29.89,10.0,Calm,Calm,-,N/A,,Clear,0,2013-09-22 01:18:00
8:38 PM,54.9,45.3,70,29.89,10.0,Calm,Calm,-,N/A,,Clear,0,2013-09-22 01:38:00
8:58 PM,54.9,45.5,71,29.89,10.0,Calm,Calm,-,N/A,,Clear,0,2013-09-22 01:58:00
9:18 PM,54.5,45.5,72,29.89,10.0,Calm,Calm,-,N/A,,Clear,0,2013-09-22 02:18:00
9:38 PM,54.7,45.5,71,29.89,10.0,Calm,Calm,-,N/A,,Clear,0,2013-09-22 02:38:00
9:58 PM,54.1,45.5,73,29.89,10.0,Calm,Calm,-,N/A,,Clear,0,2013-09-22 02:58:00
10:18 PM,53.6,45.5,74,29.89,10.0,Calm,Calm,-,N/A,,Clear,0,2013-09-22 03:18:00
10:38 PM,52.5,45.1,76,29.89,10.0,Calm,Calm,-,N/A,,Clear,0,2013-09-22 03:38:00
10:58 PM,51.8,45.0,77,29.89,10.0,Calm,Calm,-,N/A,,Clear,0,2013-09-22 03:58:00
11:17 PM,50.5,44.6,80,29.89,10.0,Calm,Calm,-,N/A,,Clear,0,2013-09-22 04:17:00
11:37 PM,50.0,44.6,82,29.90,10.0,Calm,Calm,-,N/A,,Clear,0,2013-09-22 04:37:00
11:58 PM,50.0,44.6,82,29.90,10.0,Calm,Calm,-,N/A,,Clear,0,2013-09-22 04:58:00